This demonstration page uses our WeatherBlox Daily Observations layout. Learn more.

Left ArrowRight Arrow

Hourly Observations for May 6, 2017

Temp ( °F °C ) Dew Point ( °F °C ) Humidity (%) Winds ( mph kmh ) Pressure ( in mb ) Visibility ( mi km ) Precip ( " mm )
12:56 am 00:56 Clear 50 10.1 42 5.3 72 72 Calm 29.84 1011 10 16 0.00 0.00
1:56 am 01:56 Clear 50 10.1 40 4.2 67 67 WSW 5 7 29.83 1010 10 16 0.00 0.00
2:56 am 02:56 Clear 53 11.7 42 5.6 66 66 WNW 7 11 29.82 1010 10 16 0.00 0.00
3:56 am 03:56 Clear 56 13.4 42 5.3 58 58 W 7 11 29.83 1010 10 16 0.00 0.00
4:56 am 04:56 Clear 54 12.4 44 6.4 67 67 NW 3 6 29.86 1011 10 16 0.00 0.00
5:56 am 05:56 Clear 49 9.6 41 4.8 72 72 WNW 9 15 29.85 1011 10 16 0.00 0.00
6:56 am 06:56 Sunny 53 11.5 43 6.2 70 70 NNW 5 7 29.88 1012 10 16 0.00 0.00
7:56 am 07:56 Sunny 60 15.5 44 6.5 55 55 NNE 7 11 29.91 1013 10 16 0.00 0.00
8:56 am 08:56 Sunny 64 17.6 45 7 50 50 NE 7 11 29.93 1014 10 16 0.00 0.00
9:56 am 09:56 Sunny 69 20.5 40 4.5 35 35 E 7 11 29.94 1014 10 16 0.00 0.00
10:56 am 10:56 Sunny 72 22.2 39 3.8 30 30 ENE 7 11 29.95 1014 10 16 0.00 0.00
11:56 am 11:56 Sunny 73 22.8 38 3.3 28 28 NE 7 11 29.95 1014 10 16 0.00 0.00
12:56 pm 12:56 Sunny 74 23.5 37 2.9 26 26 E 3 6 29.93 1014 10 16 0.00 0.00
1:56 pm 13:56 Sunny 76 24.3 38 3.6 26 26 ENE 6 9 29.92 1013 10 16 0.00 0.00
2:56 pm 14:56 Sunny 77 24.8 40 4.5 27 27 NNW 6 9 29.91 1013 10 16 0.00 0.00
3:56 pm 15:56 Sunny 77 24.8 37 2.8 24 24 NNE 7 11 29.90 1013 10 16 0.00 0.00
4:56 pm 16:56 Sunny 78 25.3 37 2.7 23 23 Calm 29.88 1012 10 16 0.00 0.00
5:56 pm 17:56 Sunny 78 25.4 35 1.5 21 21 Calm 29.87 1012 10 16 0.00 0.00
6:56 pm 18:56 Sunny 76 24.6 43 5.9 30 30 E 5 7 29.87 1012 10 16 0.00 0.00
7:56 pm 19:56 Sunny 71 21.4 40 4.5 33 33 E 6 9 29.88 1012 10 16 0.00 0.00
8:56 pm 20:56 Clear 63 17.3 39 3.9 41 41 E 6 9 29.89 1012 10 16 0.00 0.03
9:56 pm 21:56 Clear 56 13.4 42 5.8 60 60 Calm 29.92 1013 10 16 0.00 0.00
10:56 pm 22:56 Clear 53 11.4 42 5.5 67 67 Calm 29.92 1013 10 16 0.00 0.00
11:56 pm 23:56 Clear 50 10.1 43 6.1 76 76 Calm 29.93 1013 10 16 0.00 0.00

Powered by AerisWeather